Location: Crabtree
(36.2040°N, 82.1040°W)
Time: 18:26:31
(UTC+00:00)

BlueWalker 3 - Visible Passes

Search period start: 21 September 2023 00:00
Search period end: 01 October 2023 00:00
Orbit: 492 x 508 km, 53.2° (Epoch: 21 September)

Date Brightness Start Highest point End Pass type
(mag) Time Alt. Az. Time Alt. Az. Time Alt. Az.
28 Sep 4.5 10:37:07 10° NNW 10:39:45 17° NNE 10:42:23 10° ENE visible
29 Sep 4.5 10:15:33 10° NNW 10:18:12 17° NNE 10:20:50 10° ENE visible
30 Sep 4.5 09:53:59 10° NNW 09:56:37 17° NNE 09:59:16 10° ENE visible
